Tracking 29777 objects as of 6-Oct-2024
HD Live streaming from Space Station
objects crossing your sky now

PSLV DEB

Track PSLV DEB now!
10-day predictions


NORAD ID: 41792
Int'l Code: 2016-059K
Perigee: 642.6 km
Apogee: 675.5 km
Inclination: 97.8 °
Period: 97.8 minutes
Semi major axis: 7030 km
RCS: Unknown
Launch date: September 26, 2016
Source: India (IND)
Launch site: SRIHARIKOTA (SRI)

Note: This is SATELLITE DEBRIS
Your satellite tracking list
Your tracking list is empty




NASA's NSSDC Master Catalog

Two Line Element Set (TLE):
1 41792U 16059K   24280.55689077  .00013222  00000-0  20602-2 0  9999
2 41792  97.8362 311.1444 0023389 357.4896   2.6191 14.72871637429566
Source of the keplerian elements: AFSPC